DW9750 Weather Reports


Display with metric or nautical units.
time (UTC)temp
F
wind
direction
speed
MPH
gust
MPH
rain 1hr
in
rain 24hr
in
rain mn
in
humidity
%
barometer
mb
20190419050158 49 290 0.0 0.0 0.00 0.22 0.00 89 1016.6
20190419044656 50 291 0.0 0.0 0.00 0.72 0.22 88 1016.3
20190419043109 51 290 0.0 0.0 0.00 0.72 0.22 85 1016.1
20190419041548 51 290 0.0 0.0 0.00 0.72 0.22 84 1015.8
20190419040058 52 291 0.0 0.0 0.00 0.72 0.22 82 1015.8
20190419034650 54 291 0.0 0.0 0.00 0.72 0.22 77 1015.7
20190419033105 55 290 0.0 0.0 0.00 0.72 0.22 76 1015.7
20190419031619 54 291 0.0 0.0 0.00 0.72 0.22 74 1015.7
20190419030038 55 291 0.0 0.0 0.00 0.72 0.22 71 1015.5
20190419024627 56 290 0.0 0.0 0.00 0.72 0.22 70 1015.5
20190419023100 57 290 0.0 0.0 0.00 0.72 0.22 68 1015.5
20190419021604 58 290 0.0 0.0 0.00 0.72 0.22 64 1015.4
20190419020100 60 290 0.0 0.0 0.00 0.72 0.22 60 1015.0
20190419014527 60 291 0.0 0.0 0.00 0.72 0.22 59 1014.6
20190419013034 62 290 0.0 0.0 0.00 0.72 0.22 55 1014.3
20190419011528 65 290 0.0 0.0 0.00 0.72 0.22 50 1013.9
20190419010029 68 290 0.0 2.0 0.00 0.72 0.22 45 1013.6
20190419004518 71 273 0.0 1.0 0.00 0.72 0.22 41 1013.3
20190419003013 72 266 0.0 2.0 0.00 0.72 0.22 39 1013.1
20190419001528 72 137 0.0 6.0 0.00 0.72 0.22 39 1012.8
20190419000008 73 276 0.0 6.0 0.00 0.72 0.22 38 1012.6
20190418234505 74 299 0.0 6.0 0.00 0.72 0.22 38 1012.5
20190418233038 74 294 0.0 4.0 0.00 0.72 0.22 39 1012.3
20190418231508 74 354 1.0 7.0 0.00 0.72 0.22 35 1012.1
20190418230245 75 289 0.0 7.0 0.00 0.72 0.22 39 1011.8
20190418224656 74 2 0.0 11.0 0.00 0.72 0.22 37 1011.6
20190418223210 75 306 1.0 12.0 0.00 0.72 0.22 37 1011.4
20190418221657 75 279 0.0 9.0 0.00 0.72 0.22 40 1011.4
20190418220219 75 299 2.0 12.0 0.00 0.72 0.22 36 1011.0
20190418214750 75 267 2.0 8.0 0.00 0.72 0.22 37 1011.2
20190418213237 76 85 0.0 7.0 0.00 0.72 0.22 40 1010.9
20190418211640 75 259 2.0 9.0 0.00 0.72 0.22 36 1010.8
20190418210145 76 299 1.0 7.0 0.00 0.72 0.22 39 1010.7
20190418204636 76 70 0.0 4.0 0.00 0.72 0.22 41 1010.8
20190418203119 75 99 1.0 10.0 0.00 0.72 0.22 46 1010.8
20190418201623 75 14 1.0 17.0 0.00 0.72 0.22 52 1011.0
20190418200152 75 259 2.0 12.0 0.00 0.72 0.22 54 1011.0
20190418194720 73 52 2.0 8.0 0.00 0.72 0.22 58 1011.0
20190418193104 73 299 1.0 15.0 0.00 0.72 0.22 62 1011.0
20190418191604 72 336 2.0 8.0 0.00 0.72 0.22 65 1011.0
20190418190100 72 338 1.0 10.0 0.00 0.72 0.22 66 1010.9
20190418184617 70 311 2.0 13.0 0.00 0.72 0.22 67 1010.8
20190418183054 70 321 3.0 10.0 0.00 0.72 0.22 69 1010.6
20190418181617 69 261 0.0 7.0 0.00 0.72 0.22 73 1010.6
20190418180058 69 306 1.0 6.0 0.00 0.72 0.22 73 1010.6
20190418174525 67 303 1.0 9.0 0.00 0.72 0.22 76 1010.5
20190418173024 66 258 0.0 6.0 0.00 0.72 0.22 77 1010.7
20190418171522 66 335 2.0 7.0 0.00 0.72 0.22 76 1010.4
20190418170041 67 286 1.0 9.0 0.00 0.72 0.22 79 1010.2
20190418164519 65 304 2.0 8.0 0.00 0.72 0.22 80 1010.1
20190418163016 64 294 1.0 9.0 0.00 0.72 0.22 84 1010.0
20190418161503 63 335 0.0 4.0 0.00 0.72 0.22 95 1009.6
20190418160143 62 257 0.0 7.0 0.00 0.72 0.22 95 1009.2
20190418154645 63 254 0.0 5.0 0.00 0.72 0.22 95 1008.8
20190418153223 61 274 0.0 1.0 0.00 0.72 0.22 96 1008.5
20190418151918 60 278 0.0 3.0 0.00 0.72 0.22 96 1008.3
20190418150157 59 321 0.0 4.0 0.00 0.72 0.22 97 1008.3
20190418144640 58 278 0.0 8.0 0.00 0.72 0.22 97 1008.1
20190418143142 57 262 0.0 4.0 0.00 0.72 0.22 97 1007.9
20190418141621 57 271 0.0 4.0 0.00 0.72 0.22 97 1007.7
20190418140122 57 277 0.0 4.0 0.00 0.72 0.22 97 1007.7
20190418134637 56 89 0.0 1.0 0.00 0.72 0.22 97 1007.5
20190418133146 55 99 0.0 0.0 0.00 0.72 0.22 97 1007.5
20190418131658 54 99 0.0 0.0 0.00 0.72 0.22 97 1007.3
20190418130136 53 99 0.0 0.0 0.00 0.72 0.22 97 1007.0
20190418124637 52 99 0.0 0.0 0.00 0.72 0.22 97 1006.7
20190418123150 52 99 0.0 0.0 0.00 0.72 0.22 97 1006.6
20190418121622 52 99 0.0 0.0 0.00 0.72 0.22 96 1006.2
20190418120110 53 99 0.0 0.0 0.00 0.72 0.22 97 1006.1
20190418114606 54 99 0.0 0.0 0.00 0.72 0.22 97 1006.1
20190418113217 54 99 0.0 0.0 0.00 0.72 0.22 97 1006.1
20190418111600 54 99 0.0 0.0 0.00 0.72 0.22 96 1006.0
20190418110045 54 99 0.0 2.0 0.01 0.72 0.22 96 1005.7
20190418104640 54 96 0.0 1.0 0.01 0.72 0.22 96 1005.3
20190418103118 55 219 0.0 2.0 0.01 0.72 0.22 96 1005.1
20190418101602 55 98 2.0 4.0 0.01 0.72 0.22 96 1005.3
20190418100044 55 131 0.0 3.0 0.00 0.71 0.21 96 1005.1
20190418094531 55 214 0.0 2.0 0.00 0.71 0.21 96 1004.1
20190418093058 55 316 0.0 0.0 0.01 0.71 0.21 96 1003.0
20190418091557 56 317 0.0 1.0 0.01 0.71 0.21 96 1002.8
20190418090055 56 95 0.0 2.0 0.01 0.71 0.21 96 1002.1
20190418084610 56 95 0.0 1.0 0.01 0.71 0.21 96 1004.0
20190418083110 56 100 1.0 3.0 0.01 0.70 0.20 96 1003.6
20190418081533 55 295 0.0 0.0 0.04 0.70 0.20 96 1003.6
20190418080048 55 302 0.0 1.0 0.05 0.70 0.20 96 1004.1
20190418074545 56 279 0.0 2.0 0.05 0.70 0.20 96 1004.7
20190418073038 55 279 0.0 3.0 0.05 0.69 0.19 96 1005.0
20190418071546 56 279 0.0 9.0 0.04 0.66 0.16 96 1005.4
20190418070058 56 214 0.0 8.0 0.07 0.65 0.15 96 1006.0
20190418064606 56 261 0.0 11.0 0.10 0.65 0.15 96 1005.3
20190418063025 56 23 0.0 3.0 0.13 0.64 0.14 96 1005.6
20190418061541 57 334 1.0 8.0 0.12 0.62 0.12 96 1007.1
20190418060020 57 314 1.0 5.0 0.08 0.57 0.08 96 1006.7
20190418054530 58 258 0.0 4.0 0.07 0.55 0.05 96 1007.4
20190418053006 58 256 0.0 4.0 0.17 0.51 0.01 96 1007.1
20190418051506 58 302 0.0 3.0 0.42 0.50 0.00 95 1005.7